| time (UTC) | temp C | wind direction | speed KPH | gust KPH | rain 1hr cm | rain 24hr cm | rain mn cm | humidity % | barometer mb |
| 20260510130508 | 25 | 306 | 0.0 | 1.6 | 0.00 | 0.00 | 0.00 | 93 | 1011.8 |
| 20260510130434 | 25 | 306 | 0.0 | 4.8 | 0.00 | 0.00 | 0.00 | 93 | 1011.7 |
| 20260510125715 | 25 | 306 | 0.0 | 4.8 | 0.00 | 0.00 | 0.00 | 93 | 1011.6 |
| 20260510124951 | 25 | 306 | 0.0 | 1.6 | 0.00 | 0.00 | 0.00 | 93 | 1011.5 |
| 20260510124440 | 25 | 306 | 0.0 | 1.6 | 0.00 | 0.00 | 0.00 | 93 | 1011.3 |
| 20260510123930 | 25 | 306 | 0.0 | 4.8 | 0.00 | 0.00 | 0.00 | 93 | 1011.3 |
| 20260510123354 | 25 | 306 | 0.0 | 3.2 | 0.00 | 0.00 | 0.00 | 93 | 1011.1 |
| 20260510122848 | 25 | 306 | 0.0 | 0.0 | 0.00 | 0.00 | 0.00 | 93 | 1011.0 |
| 20260510122346 | 25 | 306 | 0.0 | 0.0 | 0.00 | 0.00 | 0.00 | 93 | 1010.9 |
| 20260510122109 | 25 | 306 | 0.0 | 3.2 | 0.00 | 0.00 | 0.00 | 93 | 1010.8 |
| 20260510121559 | 25 | 306 | 0.0 | 3.2 | 0.00 | 0.00 | 0.00 | 93 | 1010.7 |
| 20260510120826 | 25 | 306 | 0.0 | 1.6 | 0.00 | 0.00 | 0.00 | 93 | 1010.7 |
| 20260510120310 | 25 | 306 | 0.0 | 1.6 | 0.00 | 0.00 | 0.00 | 93 | 1010.6 |
| 20260510115752 | 25 | 306 | 0.0 | 1.6 | 0.00 | 0.00 | 0.00 | 93 | 1010.5 |
| 20260510115245 | 25 | 306 | 0.0 | 1.6 | 0.00 | 0.00 | 0.00 | 93 | 1010.4 |
| 20260510114746 | 25 | 306 | 0.0 | 1.6 | 0.00 | 0.00 | 0.00 | 93 | 1010.3 |
| 20260510114244 | 25 | 306 | 0.0 | 1.6 | 0.00 | 0.00 | 0.00 | 93 | 1010.2 |
| 20260510113740 | 25 | 306 | 0.0 | 3.2 | 0.00 | 0.00 | 0.00 | 93 | 1010.0 |
| 20260510113227 | 25 | 306 | 0.0 | 3.2 | 0.00 | 0.00 | 0.00 | 93 | 1010.0 |
| 20260510112938 | 25 | 306 | 0.0 | 1.6 | 0.00 | 0.00 | 0.00 | 93 | 1009.9 |
| 20260510112211 | 24 | 306 | 0.0 | 1.6 | 0.00 | 0.00 | 0.00 | 93 | 1009.9 |
| 20260510111654 | 24 | 306 | 0.0 | 1.6 | 0.00 | 0.00 | 0.00 | 93 | 1009.9 |
| 20260510111149 | 24 | 306 | 0.0 | 1.6 | 0.00 | 0.00 | 0.00 | 93 | 1009.8 |
| 20260510110650 | 24 | 306 | 0.0 | 3.2 | 0.00 | 0.00 | 0.00 | 93 | 1009.7 |
| 20260510110137 | 24 | 306 | 0.0 | 3.2 | 0.00 | 0.00 | 0.00 | 93 | 1009.7 |
| 20260510105631 | 24 | 306 | 0.0 | 3.2 | 0.00 | 0.00 | 0.00 | 93 | 1009.6 |
| 20260510105125 | 24 | 306 | 0.0 | 4.8 | 0.00 | 0.00 | 0.00 | 93 | 1009.5 |
| 20260510104844 | 24 | 306 | 1.6 | 4.8 | 0.00 | 0.00 | 0.00 | 93 | 1009.4 |
| 20260510104118 | 24 | 306 | 1.6 | 4.8 | 0.00 | 0.00 | 0.00 | 93 | 1009.4 |
| 20260510103615 | 24 | 306 | 0.0 | 3.2 | 0.00 | 0.00 | 0.00 | 93 | 1009.4 |
| 20260510103101 | 24 | 306 | 0.0 | 3.2 | 0.00 | 0.00 | 0.00 | 93 | 1009.3 |
| 20260510102555 | 24 | 306 | 0.0 | 3.2 | 0.00 | 0.00 | 0.00 | 93 | 1009.4 |
| 20260510102308 | 24 | 306 | 1.6 | 8.0 | 0.00 | 0.00 | 0.00 | 93 | 1009.2 |
| 20260510101550 | 24 | 306 | 1.6 | 8.0 | 0.00 | 0.00 | 0.00 | 93 | 1009.2 |
| 20260510101047 | 24 | 306 | 1.6 | 8.0 | 0.00 | 0.00 | 0.00 | 93 | 1009.1 |
| 20260510100543 | 24 | 306 | 0.0 | 8.0 | 0.00 | 0.00 | 0.00 | 93 | 1009.2 |
| 20260510100044 | 24 | 306 | 0.0 | 4.8 | 0.00 | 0.00 | 0.00 | 92 | 1009.2 |
| 20260510095538 | 24 | 306 | 0.0 | 3.2 | 0.00 | 0.00 | 0.00 | 92 | 1009.2 |
| 20260510095030 | 24 | 306 | 0.0 | 3.2 | 0.00 | 0.00 | 0.00 | 92 | 1009.3 |
| 20260510094528 | 24 | 306 | 0.0 | 1.6 | 0.00 | 0.00 | 0.00 | 92 | 1009.3 |
| 20260510094028 | 24 | 306 | 0.0 | 1.6 | 0.00 | 0.00 | 0.00 | 92 | 1009.4 |
| 20260510093526 | 24 | 306 | 0.0 | 3.2 | 0.00 | 0.00 | 0.00 | 92 | 1009.4 |
| 20260510093009 | 24 | 306 | 0.0 | 3.2 | 0.00 | 0.00 | 0.00 | 92 | 1009.4 |
| 20260510092503 | 24 | 306 | 0.0 | 6.4 | 0.00 | 0.00 | 0.00 | 92 | 1009.5 |
| 20260510092214 | 24 | 306 | 1.6 | 8.0 | 0.00 | 0.00 | 0.00 | 92 | 1009.6 |
| 20260510091701 | 24 | 306 | 1.6 | 8.0 | 0.00 | 0.00 | 0.00 | 93 | 1009.5 |
| 20260510090936 | 24 | 306 | 1.6 | 6.4 | 0.00 | 0.00 | 0.00 | 93 | 1009.5 |
| 20260510090655 | 24 | 306 | 1.6 | 6.4 | 0.00 | 0.00 | 0.00 | 93 | 1009.5 |
| 20260510085932 | 24 | 306 | 0.0 | 3.2 | 0.00 | 0.00 | 0.00 | 93 | 1009.5 |
| 20260510085433 | 24 | 306 | 0.0 | 4.8 | 0.00 | 0.00 | 0.00 | 93 | 1009.4 |
| 20260510084926 | 24 | 306 | 1.6 | 6.4 | 0.00 | 0.00 | 0.00 | 93 | 1009.4 |
| 20260510084425 | 24 | 306 | 1.6 | 6.4 | 0.00 | 0.00 | 0.00 | 93 | 1009.3 |
| 20260510083900 | 24 | 306 | 1.6 | 11.3 | 0.00 | 0.00 | 0.00 | 93 | 1009.2 |
| 20260510083354 | 24 | 306 | 1.6 | 11.3 | 0.00 | 0.00 | 0.00 | 93 | 1009.2 |
| 20260510083109 | 24 | 306 | 1.6 | 6.4 | 0.00 | 0.00 | 0.00 | 93 | 1009.2 |
| 20260510082341 | 24 | 306 | 1.6 | 11.3 | 0.00 | 0.00 | 0.00 | 93 | 1009.1 |
| 20260510081822 | 24 | 313 | 0.0 | 11.3 | 0.00 | 0.00 | 0.00 | 93 | 1009.2 |
| 20260510081541 | 24 | 318 | 0.0 | 3.2 | 0.00 | 0.00 | 0.00 | 93 | 1009.2 |
| 20260510080807 | 24 | 318 | 0.0 | 3.2 | 0.00 | 0.00 | 0.00 | 92 | 1009.1 |
| 20260510080308 | 24 | 318 | 0.0 | 3.2 | 0.00 | 0.00 | 0.00 | 93 | 1009.0 |
| 20260510080031 | 24 | 318 | 0.0 | 3.2 | 0.00 | 0.00 | 0.00 | 92 | 1009.1 |
| 20260510075256 | 24 | 318 | 0.0 | 1.6 | 0.00 | 0.00 | 0.00 | 92 | 1009.1 |
| 20260510074749 | 24 | 318 | 0.0 | 4.8 | 0.00 | 0.00 | 0.00 | 92 | 1009.0 |
| 20260510074248 | 24 | 318 | 0.0 | 4.8 | 0.00 | 0.00 | 0.00 | 92 | 1009.1 |
| 20260510073749 | 24 | 318 | 0.0 | 3.2 | 0.00 | 0.00 | 0.00 | 92 | 1009.1 |
| 20260510073245 | 24 | 318 | 0.0 | 3.2 | 0.00 | 0.00 | 0.00 | 92 | 1009.1 |
| 20260510072739 | 24 | 318 | 0.0 | 3.2 | 0.00 | 0.00 | 0.00 | 92 | 1009.1 |
| 20260510072216 | 24 | 318 | 0.0 | 4.8 | 0.00 | 0.00 | 0.00 | 92 | 1009.2 |
| 20260510071715 | 24 | 318 | 0.0 | 4.8 | 0.00 | 0.00 | 0.00 | 92 | 1009.1 |
| 20260510071149 | 24 | 318 | 1.6 | 6.4 | 0.00 | 0.00 | 0.00 | 91 | 1009.1 |
| 20260510070633 | 24 | 318 | 1.6 | 6.4 | 0.00 | 0.00 | 0.00 | 91 | 1009.2 |
| 20260510070357 | 24 | 318 | 1.6 | 6.4 | 0.00 | 0.00 | 0.00 | 91 | 1009.2 |
| 20260510065622 | 24 | 318 | 1.6 | 6.4 | 0.00 | 0.00 | 0.00 | 91 | 1009.3 |
| 20260510065116 | 24 | 318 | 1.6 | 8.0 | 0.00 | 0.00 | 0.00 | 91 | 1009.3 |
| 20260510064616 | 24 | 318 | 1.6 | 8.0 | 0.00 | 0.00 | 0.00 | 91 | 1009.4 |
| 20260510064116 | 24 | 318 | 1.6 | 6.4 | 0.00 | 0.00 | 0.00 | 91 | 1009.4 |
| 20260510063615 | 24 | 318 | 1.6 | 6.4 | 0.00 | 0.00 | 0.00 | 91 | 1009.3 |
| 20260510063109 | 24 | 318 | 1.6 | 6.4 | 0.00 | 0.00 | 0.00 | 91 | 1009.4 |
| 20260510062605 | 24 | 318 | 1.6 | 8.0 | 0.00 | 0.00 | 0.00 | 91 | 1009.4 |
| 20260510062106 | 25 | 318 | 1.6 | 8.0 | 0.00 | 0.00 | 0.00 | 91 | 1009.4 |
| 20260510061551 | 25 | 318 | 1.6 | 6.4 | 0.00 | 0.00 | 0.00 | 91 | 1009.4 |
| 20260510061044 | 25 | 318 | 1.6 | 8.0 | 0.00 | 0.00 | 0.00 | 91 | 1009.4 |
| 20260510061030 | 25 | 318 | 1.6 | 8.0 | 0.00 | 0.00 | 0.00 | 91 | 1009.4 |
| 20260510060033 | 25 | 318 | 1.6 | 8.0 | 0.00 | 0.00 | 0.00 | 91 | 1009.5 |
| 20260510055531 | 25 | 318 | 1.6 | 9.7 | 0.00 | 0.00 | 0.00 | 91 | 1009.5 |
| 20260510055021 | 25 | 319 | 1.6 | 9.7 | 0.00 | 0.00 | 0.00 | 91 | 1009.7 |
| 20260510054515 | 25 | 319 | 1.6 | 9.7 | 0.00 | 0.00 | 0.00 | 91 | 1009.7 |
| 20260510054009 | 25 | 319 | 1.6 | 8.0 | 0.00 | 0.00 | 0.00 | 91 | 1009.8 |
| 20260510053503 | 25 | 319 | 1.6 | 8.0 | 0.00 | 0.00 | 0.00 | 90 | 1009.7 |
| 20260510052957 | 25 | 319 | 1.6 | 6.4 | 0.00 | 0.00 | 0.00 | 90 | 1009.8 |
| 20260510052451 | 25 | 319 | 1.6 | 6.4 | 0.00 | 0.00 | 0.00 | 90 | 1009.7 |
| 20260510051943 | 25 | 319 | 1.6 | 6.4 | 0.00 | 0.00 | 0.00 | 90 | 1009.8 |
| 20260510051437 | 25 | 319 | 1.6 | 6.4 | 0.00 | 0.00 | 0.00 | 90 | 1009.9 |
| 20260510050931 | 25 | 319 | 1.6 | 6.4 | 0.00 | 0.00 | 0.00 | 90 | 1010.0 |
| 20260510050416 | 25 | 319 | 1.6 | 6.4 | 0.00 | 0.00 | 0.00 | 90 | 1010.1 |
| 20260510045911 | 25 | 319 | 1.6 | 6.4 | 0.00 | 0.00 | 0.00 | 90 | 1010.1 |
| 20260510045412 | 25 | 319 | 1.6 | 4.8 | 0.00 | 0.00 | 0.00 | 89 | 1010.2 |
| 20260510044857 | 25 | 319 | 1.6 | 8.0 | 0.00 | 0.00 | 0.00 | 89 | 1010.2 |
| 20260510044351 | 25 | 319 | 1.6 | 8.0 | 0.00 | 0.00 | 0.00 | 89 | 1010.2 |
| 20260510043846 | 25 | 319 | 0.0 | 6.4 | 0.00 | 0.00 | 0.00 | 89 | 1010.3 |
| 20260510043346 | 25 | 319 | 1.6 | 4.8 | 0.00 | 0.00 | 0.00 | 88 | 1010.3 |
| 20260510042833 | 25 | 319 | 1.6 | 6.4 | 0.00 | 0.00 | 0.00 | 88 | 1010.1 |
| 20260510042332 | 25 | 319 | 1.6 | 8.0 | 0.00 | 0.00 | 0.00 | 88 | 1010.1 |
| 20260510041821 | 26 | 319 | 1.6 | 8.0 | 0.00 | 0.00 | 0.00 | 88 | 1010.2 |
| 20260510041318 | 26 | 319 | 1.6 | 6.4 | 0.00 | 0.00 | 0.00 | 87 | 1010.2 |
| 20260510040812 | 26 | 319 | 0.0 | 6.4 | 0.00 | 0.00 | 0.00 | 87 | 1010.0 |
| 20260510040312 | 26 | 319 | 1.6 | 6.4 | 0.00 | 0.00 | 0.00 | 86 | 1010.0 |
| 20260510040021 | 26 | 319 | 1.6 | 6.4 | 0.00 | 0.00 | 0.00 | 86 | 1010.1 |
| 20260510035251 | 26 | 319 | 1.6 | 4.8 | 0.00 | 0.00 | 0.00 | 86 | 1010.1 |
| 20260510035024 | 26 | 319 | 1.6 | 8.0 | 0.00 | 0.00 | 0.00 | 85 | 1010.1 |
| 20260510034252 | 26 | 319 | 3.2 | 11.3 | 0.00 | 0.00 | 0.00 | 85 | 1010.0 |
| 20260510033733 | 26 | 319 | 1.6 | 11.3 | 0.00 | 0.00 | 0.00 | 85 | 1010.0 |
| 20260510033227 | 26 | 320 | 1.6 | 8.0 | 0.00 | 0.00 | 0.00 | 84 | 1010.0 |
| 20260510032713 | 26 | 320 | 1.6 | 8.0 | 0.00 | 0.00 | 0.00 | 83 | 1010.1 |
| 20260510032213 | 26 | 320 | 1.6 | 8.0 | 0.00 | 0.00 | 0.00 | 83 | 1010.2 |
| 20260510031713 | 26 | 313 | 1.6 | 6.4 | 0.00 | 0.00 | 0.00 | 81 | 1010.2 |
| 20260510031210 | 26 | 313 | 1.6 | 6.4 | 0.00 | 0.00 | 0.00 | 81 | 1010.2 |
| 20260510030710 | 26 | 313 | 1.6 | 6.4 | 0.00 | 0.00 | 0.00 | 81 | 1010.1 |
| 20260510030209 | 26 | 313 | 1.6 | 6.4 | 0.00 | 0.00 | 0.00 | 81 | 1009.9 |
| 20260510025707 | 26 | 313 | 1.6 | 4.8 | 0.00 | 0.00 | 0.00 | 80 | 1009.9 |
| 20260510025206 | 26 | 313 | 1.6 | 4.8 | 0.00 | 0.00 | 0.00 | 79 | 1009.8 |
| 20260510024708 | 26 | 313 | 0.0 | 8.0 | 0.00 | 0.00 | 0.00 | 78 | 1009.7 |
| 20260510024206 | 26 | 313 | 1.6 | 8.0 | 0.00 | 0.00 | 0.00 | 78 | 1009.4 |
| 20260510023659 | 26 | 313 | 1.6 | 4.8 | 0.00 | 0.00 | 0.00 | 77 | 1009.2 |
| 20260510023159 | 26 | 314 | 3.2 | 1.6 | 0.00 | 0.00 | 0.00 | 76 | 1009.0 |
| 20260510022653 | 27 | 314 | 1.6 | 6.4 | 0.00 | 0.00 | 0.00 | 76 | 1008.8 |
| 20260510022143 | 27 | 314 | 1.6 | 6.4 | 0.00 | 0.00 | 0.00 | 75 | 1008.8 |
| 20260510021633 | 27 | 313 | 1.6 | 6.4 | 0.00 | 0.00 | 0.00 | 74 | 1008.6 |
| 20260510021134 | 27 | 313 | 1.6 | 8.0 | 0.00 | 0.00 | 0.00 | 74 | 1008.5 |
| 20260510020613 | 27 | 313 | 1.6 | 8.0 | 0.00 | 0.00 | 0.00 | 74 | 1008.4 |
| 20260510020106 | 27 | 313 | 1.6 | 6.4 | 0.00 | 0.00 | 0.00 | 73 | 1008.3 |
| 20260510015601 | 27 | 313 | 1.6 | 9.7 | 0.00 | 0.00 | 0.00 | 72 | 1008.1 |
| 20260510015319 | 27 | 313 | 3.2 | 9.7 | 0.00 | 0.00 | 0.00 | 71 | 1008.1 |
| 20260510014549 | 27 | 314 | 1.6 | 8.0 | 0.00 | 0.00 | 0.00 | 71 | 1007.7 |
| 20260510014049 | 27 | 315 | 1.6 | 8.0 | 0.00 | 0.00 | 0.00 | 70 | 1007.5 |
| 20260510013537 | 28 | 315 | 1.6 | 8.0 | 0.00 | 0.00 | 0.00 | 69 | 1007.6 |
| 20260510013033 | 28 | 315 | 1.6 | 6.4 | 0.00 | 0.00 | 0.00 | 68 | 1007.4 |
| 20260510012522 | 28 | 315 | 1.6 | 6.4 | 0.00 | 0.00 | 0.00 | 68 | 1007.4 |
| 20260510012016 | 28 | 315 | 3.2 | 9.7 | 0.00 | 0.00 | 0.00 | 67 | 1007.3 |
| 20260510011507 | 28 | 315 | 3.2 | 9.7 | 0.00 | 0.00 | 0.00 | 66 | 1007.2 |
| 20260510011002 | 28 | 315 | 3.2 | 9.7 | 0.00 | 0.00 | 0.00 | 65 | 1007.1 |
| 20260510010504 | 28 | 325 | 3.2 | 9.7 | 0.00 | 0.00 | 0.00 | 65 | 1006.8 |
| 20260510005956 | 29 | 325 | 3.2 | 9.7 | 0.00 | 0.00 | 0.00 | 64 | 1006.4 |
| 20260510005456 | 29 | 325 | 3.2 | 9.7 | 0.00 | 0.00 | 0.00 | 63 | 1006.7 |
| 20260510004957 | 29 | 328 | 3.2 | 11.3 | 0.00 | 0.00 | 0.00 | 63 | 1007.0 |
| 20260510004946 | 30 | 329 | 1.6 | 11.3 | 0.00 | 0.00 | 0.00 | 64 | 1006.9 |
| 20260510003952 | 30 | 333 | 1.6 | 8.0 | 0.00 | 0.00 | 0.00 | 64 | 1006.9 |
| 20260510003451 | 30 | 333 | 1.6 | 6.4 | 0.00 | 0.00 | 0.00 | 65 | 1006.9 |
| 20260510002950 | 30 | 333 | 1.6 | 6.4 | 0.00 | 0.00 | 0.00 | 65 | 1006.9 |
| 20260510002444 | 30 | 333 | 0.0 | 4.8 | 0.00 | 0.00 | 0.00 | 66 | 1006.8 |
| 20260510001939 | 30 | 333 | 1.6 | 8.0 | 0.00 | 0.00 | 0.00 | 66 | 1006.7 |
| 20260510001441 | 30 | 333 | 1.6 | 8.0 | 0.00 | 0.00 | 0.00 | 66 | 1006.5 |
| 20260510000922 | 31 | 333 | 1.6 | 8.0 | 0.00 | 0.00 | 0.00 | 66 | 1006.7 |
| 20260510000900 | 31 | 333 | 1.6 | 9.7 | 0.00 | 0.00 | 0.00 | 65 | 1006.8 |
| 20260509235911 | 31 | 333 | 1.6 | 9.7 | 0.00 | 0.00 | 0.00 | 65 | 1006.4 |
| 20260509235400 | 31 | 336 | 0.0 | 1.6 | 0.00 | 0.00 | 0.00 | 65 | 1006.3 |
| 20260509234901 | 31 | 336 | 0.0 | 3.2 | 0.00 | 0.00 | 0.00 | 64 | 1006.3 |
| 20260509234614 | 31 | 336 | 0.0 | 3.2 | 0.00 | 0.00 | 0.00 | 64 | 1006.3 |
| 20260509233844 | 32 | 336 | 0.0 | 3.2 | 0.00 | 0.00 | 0.00 | 63 | 1006.2 |
| 20260509233307 | 32 | 336 | 0.0 | 4.8 | 0.00 | 0.00 | 0.00 | 62 | 1006.4 |
| 20260509232741 | 32 | 336 | 0.0 | 4.8 | 0.00 | 0.00 | 0.00 | 62 | 1006.4 |
| 20260509232457 | 32 | 336 | 0.0 | 4.8 | 0.00 | 0.00 | 0.00 | 61 | 1006.3 |
| 20260509231730 | 32 | 336 | 0.0 | 4.8 | 0.00 | 0.00 | 0.00 | 61 | 1006.4 |
| 20260509231225 | 32 | 336 | 1.6 | 4.8 | 0.00 | 0.00 | 0.00 | 61 | 1006.4 |
| 20260509230938 | 33 | 336 | 1.6 | 3.2 | 0.00 | 0.00 | 0.00 | 61 | 1006.3 |
| 20260509230212 | 33 | 336 | 0.0 | 3.2 | 0.00 | 0.00 | 0.00 | 61 | 1006.3 |
| 20260509225705 | 33 | 336 | 0.0 | 4.8 | 0.00 | 0.00 | 0.00 | 62 | 1006.3 |
| 20260509225159 | 32 | 336 | 1.6 | 4.8 | 0.00 | 0.00 | 0.00 | 61 | 1006.3 |
| 20260509224654 | 32 | 336 | 1.6 | 4.8 | 0.00 | 0.00 | 0.00 | 61 | 1006.2 |
| 20260509224418 | 33 | 336 | 0.0 | 3.2 | 0.00 | 0.00 | 0.00 | 60 | 1006.1 |
| 20260509223653 | 33 | 336 | 1.6 | 4.8 | 0.00 | 0.00 | 0.00 | 59 | 1006.1 |
| 20260509223409 | 32 | 336 | 1.6 | 6.4 | 0.00 | 0.00 | 0.00 | 58 | 1006.1 |
| 20260509222648 | 33 | 336 | 1.6 | 6.4 | 0.00 | 0.00 | 0.00 | 59 | 1006.1 |
| 20260509222147 | 33 | 336 | 0.0 | 3.2 | 0.00 | 0.00 | 0.00 | 59 | 1006.2 |
| 20260509221856 | 33 | 336 | 1.6 | 8.0 | 0.00 | 0.00 | 0.00 | 59 | 1006.1 |
| 20260509221111 | 33 | 336 | 1.6 | 8.0 | 0.00 | 0.00 | 0.00 | 59 | 1006.0 |
| 20260509220823 | 33 | 336 | 1.6 | 4.8 | 0.00 | 0.00 | 0.00 | 60 | 1006.0 |
| 20260509220319 | 33 | 336 | 0.0 | 4.8 | 0.00 | 0.00 | 0.00 | 60 | 1006.1 |
| 20260509215553 | 33 | 336 | 0.0 | 4.8 | 0.00 | 0.00 | 0.00 | 60 | 1006.1 |
| 20260509215310 | 33 | 336 | 1.6 | 4.8 | 0.00 | 0.00 | 0.00 | 62 | 1006.1 |
| 20260509214541 | 33 | 336 | 1.6 | 4.8 | 0.00 | 0.00 | 0.00 | 59 | 1006.1 |
| 20260509214035 | 33 | 336 | 1.6 | 4.8 | 0.00 | 0.00 | 0.00 | 60 | 1006.1 |
| 20260509213529 | 33 | 336 | 1.6 | 6.4 | 0.00 | 0.00 | 0.00 | 59 | 1006.0 |
| 20260509213030 | 33 | 336 | 1.6 | 6.4 | 0.00 | 0.00 | 0.00 | 59 | 1006.0 |
| 20260509212525 | 33 | 336 | 1.6 | 4.8 | 0.00 | 0.00 | 0.00 | 59 | 1006.0 |
| 20260509212011 | 34 | 336 | 1.6 | 4.8 | 0.00 | 0.00 | 0.00 | 58 | 1006.0 |
| 20260509211501 | 35 | 336 | 1.6 | 4.8 | 0.00 | 0.00 | 0.00 | 61 | 1006.0 |
| 20260509210956 | 34 | 336 | 0.0 | 4.8 | 0.00 | 0.00 | 0.00 | 61 | 1006.0 |
| 20260509210451 | 34 | 336 | 0.0 | 3.2 | 0.00 | 0.00 | 0.00 | 59 | 1006.2 |
| 20260509205943 | 34 | 336 | 0.0 | 6.4 | 0.00 | 0.00 | 0.00 | 60 | 1006.2 |
| 20260509205437 | 33 | 336 | 1.6 | 6.4 | 0.00 | 0.00 | 0.00 | 60 | 1006.2 |
| 20260509204931 | 33 | 336 | 0.0 | 4.8 | 0.00 | 0.00 | 0.00 | 62 | 1006.3 |
| 20260509204648 | 33 | 336 | 1.6 | 6.4 | 0.00 | 0.00 | 0.00 | 62 | 1006.4 |
| 20260509204358 | 33 | 336 | 1.6 | 6.4 | 0.00 | 0.00 | 0.00 | 61 | 1006.4 |
| 20260509203413 | 33 | 336 | 0.0 | 4.8 | 0.00 | 0.00 | 0.00 | 62 | 1006.5 |
| 20260509202911 | 33 | 336 | 0.0 | 3.2 | 0.00 | 0.00 | 0.00 | 62 | 1006.5 |
| 20260509202638 | 33 | 336 | 1.6 | 12.9 | 0.00 | 0.00 | 0.00 | 65 | 1006.6 |
| 20260509202128 | 32 | 336 | 1.6 | 12.9 | 0.00 | 0.00 | 0.00 | 65 | 1006.6 |
| 20260509201408 | 32 | 9 | 0.0 | 4.8 | 0.00 | 0.00 | 0.00 | 62 | 1006.6 |
| 20260509200858 | 32 | 9 | 0.0 | 4.8 | 0.00 | 0.00 | 0.00 | 62 | 1006.7 |
| 20260509200347 | 33 | 9 | 0.0 | 4.8 | 0.00 | 0.00 | 0.00 | 63 | 1006.7 |
| 20260509195846 | 33 | 9 | 1.6 | 4.8 | 0.00 | 0.00 | 0.00 | 64 | 1006.9 |
| 20260509195600 | 33 | 9 | 0.0 | 4.8 | 0.00 | 0.00 | 0.00 | 63 | 1006.9 |
| 20260509195103 | 33 | 9 | 0.0 | 4.8 | 0.00 | 0.00 | 0.00 | 66 | 1006.9 |
| 20260509194340 | 32 | 9 | 0.0 | 3.2 | 0.00 | 0.00 | 0.00 | 67 | 1007.0 |
| 20260509193812 | 32 | 9 | 0.0 | 3.2 | 0.00 | 0.00 | 0.00 | 68 | 1007.1 |
| 20260509193301 | 32 | 9 | 1.6 | 6.4 | 0.00 | 0.00 | 0.00 | 67 | 1007.1 |
| 20260509192755 | 32 | 9 | 1.6 | 6.4 | 0.00 | 0.00 | 0.00 | 66 | 1007.1 |
| 20260509192251 | 32 | 9 | 0.0 | 6.4 | 0.00 | 0.00 | 0.00 | 69 | 1007.1 |
| 20260509191751 | 32 | 9 | 0.0 | 3.2 | 0.00 | 0.00 | 0.00 | 68 | 1007.0 |
| 20260509191248 | 31 | 9 | 0.0 | 3.2 | 0.00 | 0.00 | 0.00 | 67 | 1007.0 |
| 20260509190742 | 31 | 9 | 0.0 | 3.2 | 0.00 | 0.00 | 0.00 | 69 | 1007.0 |
| 20260509190235 | 31 | 9 | 0.0 | 3.2 | 0.00 | 0.00 | 0.00 | 70 | 1007.0 |
| 20260509185736 | 31 | 9 | 0.0 | 3.2 | 0.00 | 0.00 | 0.00 | 69 | 1007.0 |
| 20260509185221 | 31 | 9 | 0.0 | 3.2 | 0.00 | 0.00 | 0.00 | 68 | 1007.0 |
| 20260509184707 | 31 | 9 | 0.0 | 3.2 | 0.00 | 0.00 | 0.00 | 68 | 1007.2 |
| 20260509184203 | 31 | 9 | 0.0 | 4.8 | 0.00 | 0.00 | 0.00 | 69 | 1007.3 |
| 20260509183639 | 31 | 9 | 0.0 | 3.2 | 0.00 | 0.00 | 0.00 | 72 | 1007.3 |
| 20260509183140 | 31 | 9 | 1.6 | 4.8 | 0.00 | 0.00 | 0.00 | 69 | 1007.3 |
| 20260509182639 | 31 | 9 | 0.0 | 4.8 | 0.00 | 0.00 | 0.00 | 71 | 1007.4 |
| 20260509182132 | 31 | 9 | 0.0 | 4.8 | 0.00 | 0.00 | 0.00 | 71 | 1007.5 |
| 20260509181630 | 31 | 9 | 0.0 | 6.4 | 0.00 | 0.00 | 0.00 | 75 | 1007.6 |
| 20260509181132 | 30 | 9 | 1.6 | 6.4 | 0.00 | 0.00 | 0.00 | 76 | 1007.8 |
| 20260509180615 | 30 | 9 | 0.0 | 4.8 | 0.00 | 0.00 | 0.00 | 77 | 1007.9 |
| 20260509180109 | 30 | 9 | 0.0 | 4.8 | 0.00 | 0.00 | 0.00 | 74 | 1008.0 |
| 20260509175825 | 30 | 9 | 0.0 | 3.2 | 0.00 | 0.00 | 0.00 | 77 | 1008.1 |
| 20260509175057 | 30 | 9 | 0.0 | 4.8 | 0.00 | 0.00 | 0.00 | 77 | 1008.3 |
| 20260509174819 | 29 | 9 | 0.0 | 4.8 | 0.00 | 0.00 | 0.00 | 77 | 1008.4 |
| 20260509174254 | 29 | 9 | 0.0 | 4.8 | 0.00 | 0.00 | 0.00 | 79 | 1008.5 |
| 20260509173752 | 29 | 9 | 1.6 | 8.0 | 0.00 | 0.00 | 0.00 | 81 | 1008.7 |
| 20260509173016 | 28 | 9 | 0.0 | 8.0 | 0.00 | 0.00 | 0.00 | 82 | 1008.8 |
| 20260509172514 | 28 | 9 | 0.0 | 3.2 | 0.00 | 0.00 | 0.00 | 82 | 1008.8 |
| 20260509172009 | 28 | 9 | 0.0 | 6.4 | 0.00 | 0.00 | 0.00 | 82 | 1008.8 |
| 20260509171456 | 27 | 9 | 1.6 | 6.4 | 0.00 | 0.00 | 0.00 | 81 | 1008.8 |
| 20260509170955 | 27 | 9 | 1.6 | 4.8 | 0.00 | 0.00 | 0.00 | 82 | 1008.8 |
| 20260509170454 | 27 | 9 | 0.0 | 4.8 | 0.00 | 0.00 | 0.00 | 83 | 1008.9 |
| 20260509165955 | 27 | 9 | 1.6 | 4.8 | 0.00 | 0.00 | 0.00 | 84 | 1009.0 |
| 20260509165456 | 27 | 9 | 1.6 | 4.8 | 0.00 | 0.00 | 0.00 | 84 | 1009.0 |
| 20260509164952 | 27 | 9 | 1.6 | 4.8 | 0.00 | 0.00 | 0.00 | 85 | 1009.0 |
| 20260509164452 | 27 | 9 | 1.6 | 4.8 | 0.00 | 0.00 | 0.00 | 86 | 1009.1 |
| 20260509163951 | 27 | 9 | 1.6 | 4.8 | 0.00 | 0.00 | 0.00 | 85 | 1009.0 |
| 20260509163452 | 27 | 9 | 0.0 | 4.8 | 0.00 | 0.00 | 0.00 | 86 | 1009.1 |
| 20260509163206 | 27 | 9 | 0.0 | 1.6 | 0.00 | 0.00 | 0.00 | 88 | 1009.0 |
| 20260509162927 | 27 | 9 | 0.0 | 3.2 | 0.00 | 0.00 | 0.00 | 88 | 1008.9 |
| 20260509161907 | 27 | 9 | 0.0 | 3.2 | 0.00 | 0.00 | 0.00 | 88 | 1008.8 |
| 20260509161401 | 27 | 9 | 0.0 | 1.6 | 0.00 | 0.00 | 0.00 | 89 | 1008.7 |
| 20260509161124 | 27 | 9 | 0.0 | 1.6 | 0.00 | 0.00 | 0.00 | 89 | 1008.8 |
| 20260509160337 | 27 | 9 | 0.0 | 1.6 | 0.00 | 0.00 | 0.00 | 91 | 1008.8 |
| 20260509155828 | 27 | 9 | 0.0 | 3.2 | 0.00 | 0.00 | 0.00 | 90 | 1008.7 |
| 20260509155314 | 27 | 9 | 0.0 | 3.2 | 0.00 | 0.00 | 0.00 | 90 | 1008.7 |
| 20260509154806 | 26 | 9 | 0.0 | 1.6 | 0.00 | 0.00 | 0.00 | 91 | 1008.8 |
| 20260509154252 | 26 | 9 | 0.0 | 3.2 | 0.00 | 0.00 | 0.00 | 91 | 1008.7 |
| 20260509153751 | 26 | 9 | 0.0 | 3.2 | 0.00 | 0.00 | 0.00 | 91 | 1008.7 |
| 20260509153247 | 26 | 9 | 0.0 | 1.6 | 0.00 | 0.00 | 0.00 | 92 | 1008.7 |
| 20260509152720 | 26 | 9 | 0.0 | 1.6 | 0.00 | 0.00 | 0.00 | 93 | 1008.7 |
| 20260509152156 | 26 | 9 | 0.0 | 3.2 | 0.00 | 0.00 | 0.00 | 93 | 1008.5 |
| 20260509151654 | 26 | 9 | 0.0 | 3.2 | 0.00 | 0.00 | 0.00 | 93 | 1008.3 |
| 20260509151152 | 26 | 9 | 0.0 | 3.2 | 0.00 | 0.00 | 0.00 | 93 | 1008.3 |
| 20260509150632 | 25 | 9 | 0.0 | 4.8 | 0.00 | 0.00 | 0.00 | 93 | 1008.3 |
| 20260509150123 | 25 | 9 | 0.0 | 4.8 | 0.00 | 0.00 | 0.00 | 93 | 1008.4 |
| 20260509145619 | 25 | 9 | 0.0 | 6.4 | 0.00 | 0.00 | 0.00 | 93 | 1008.5 |
| 20260509145111 | 25 | 9 | 0.0 | 6.4 | 0.00 | 0.00 | 0.00 | 93 | 1008.5 |
| 20260509144611 | 25 | 9 | 0.0 | 3.2 | 0.00 | 0.00 | 0.00 | 93 | 1008.6 |
| 20260509144328 | 25 | 9 | 0.0 | 3.2 | 0.00 | 0.00 | 0.00 | 93 | 1008.5 |
| 20260509143600 | 25 | 9 | 0.0 | 3.2 | 0.00 | 0.00 | 0.00 | 94 | 1008.4 |
| 20260509143409 | 25 | 9 | 0.0 | 3.2 | 0.00 | 0.00 | 0.00 | 94 | 1008.2 |
| 20260509143310 | 25 | 9 | 0.0 | 4.8 | 0.00 | 0.00 | 0.00 | 94 | 1008.3 |
| 20260509142052 | 25 | 9 | 0.0 | 4.8 | 0.00 | 0.00 | 0.00 | 94 | 1008.1 |
| 20260509141726 | 25 | 9 | 0.0 | 3.2 | 0.00 | 0.00 | 0.00 | 94 | 1008.2 |
| 20260509141610 | 25 | 9 | 0.0 | 3.2 | 0.00 | 0.00 | 0.00 | 94 | 1008.1 |
| 20260509140500 | 25 | 9 | 0.0 | 1.6 | 0.00 | 0.00 | 0.00 | 95 | 1008.2 |
| 20260509140200 | 25 | 9 | 0.0 | 0.0 | 0.00 | 0.00 | 0.00 | 95 | 1008.1 |
| 20260509140048 | 25 | 9 | 0.0 | 0.0 | 0.00 | 0.00 | 0.00 | 95 | 1008.3 |
| 20260509134947 | 25 | 9 | 0.0 | 0.0 | 0.00 | 0.00 | 0.00 | 95 | 1008.4 |
| 20260509134442 | 25 | 9 | 0.0 | 1.6 | 0.00 | 0.00 | 0.00 | 95 | 1008.5 |
| 20260509133941 | 25 | 9 | 0.0 | 6.4 | 0.00 | 0.00 | 0.00 | 95 | 1008.6 |
| 20260509133428 | 25 | 9 | 1.6 | 6.4 | 0.00 | 0.00 | 0.00 | 95 | 1008.8 |
| 20260509133139 | 25 | 9 | 1.6 | 6.4 | 0.00 | 0.00 | 0.00 | 95 | 1009.1 |
| 20260509132420 | 25 | 9 | 0.0 | 1.6 | 0.00 | 0.00 | 0.00 | 95 | 1009.1 |
| 20260509131853 | 25 | 9 | 0.0 | 4.8 | 0.00 | 0.00 | 0.00 | 95 | 1009.1 |
| 20260509131350 | 25 | 9 | 0.0 | 4.8 | 0.00 | 0.00 | 0.00 | 95 | 1008.7 |